User: anonymous   Login
Location: Unspecified
(0.0000°N, 0.0000°E)
Time: 12:48:22
(UTC+00:00)
Language:

Skynet 4A - Orbit

View from above orbital plane
View from above orbital plane
View from above satellite
View from above satellite

Ground track
Ground track

The orbit data is extracted from the following two-line orbital elements,

1 20401U 90001A   17262.25254294 -.00000134 +00000-0 +00000-0 0  9997
2 20401 013.3350 011.8415 0017105 236.9970 124.8957 00.98996334015164
Epoch (UTC): 19 September 2017 06:03:39
Eccentricity: 0.0017105
inclination: 13.3350°
perigee height: 36075 km
apogee height: 36220 km
right ascension of ascending node: 11.8415°
argument of perigee: 236.9970°
revolutions per day: 0.98996334
mean anomaly at epoch: 124.8957°
orbit number at epoch: 1516

The dashed part of the orbit path shows where the satellite is in the earth's shadow,  

DLR